(156) Xanthippe
ephemeris date magn radius delta ra dec elong phase
Today24 Jun 202613.72.236 AU2.520 AU10h12m+02°45'62.2°23.7°
Opposition27 Jul 202712.22.539 AU1.543 AU20h13m-05°07'165.6°5.7°
(156) Xanthippe - 2026-06-24
astro.vanbuitenen.nl


 
-1 year
-1 month
-1 day
Now
+1 day
+1 month
+1 year

The interactive orbit chart above shows the body's path through the solar system and its position at the given date. Green and blue lines are shown perpendicular to the ecliptic plane: Green if the path is above the ecliptic plane, blue if it is below. (Left-click and drag to rotate the view; Right-click and drag to move the view; Use scroll wheel to zoom in our out.)

The orbital elements of Xanthippe are:

            e (Eccentricity)                : 0.2215476
            a (Semimajor axis)              : 2.7326620
            i (Inclination)                 : 9.76268
            Ω (Longitude of ascending node) : 241.70331
            ω (Argument of perihelion)      : 338.96732
            M (Mean anomaly)                : 329.13047
            Epoch                           : 2026 Jun 09

            L (Longitude of perihelion)     : 220.94910
            B (Latitude of perihelion)      : -3.48906
            P (Orbital period in years)     : 4.52            
        

The light curve chart below shows the estimated development of the minor planet's magnitude.


The all-sky chart below shows the path of the minor planet over the same period as the light curve. The current position is marked yellow.





The following chart shows the path of the minor planet in the next few days. The field of view is optimized for (~10x50) binoculars and finderscopes.




Ephemerides:
Date       Time       RA (2000)    DEC (2000)    delta   radius  elong  phase   PA    magn
2026-06-24 00:00 UT   10 12 44.9   +02 45 05     2.520    2.236   62.2   23.7   115   13.7 
2026-06-24 22:27 UT   10 14 18.1   +02 39 17     2.528    2.234   61.7   23.6   115   13.7 
2026-06-25 00:00 UT   10 14 24.6   +02 38 53     2.529    2.234   61.7   23.6   115   13.7 
2026-06-26 00:00 UT   10 16 04.8   +02 32 35     2.537    2.233   61.2   23.5   115   13.7 
2026-06-27 00:00 UT   10 17 45.4   +02 26 12     2.545    2.231   60.7   23.4   116   13.7 
2026-06-28 00:00 UT   10 19 26.5   +02 19 42     2.554    2.229   60.2   23.3   116   13.7 
2026-06-29 00:00 UT   10 21 08.0   +02 13 07     2.562    2.228   59.6   23.2   116   13.7 
2026-06-30 00:00 UT   10 22 49.8   +02 06 26     2.570    2.226   59.1   23.1   116   13.7 
2026-07-01 00:00 UT   10 24 32.1   +01 59 40     2.578    2.225   58.6   23.0   116   13.7 
2026-07-02 00:00 UT   10 26 14.9   +01 52 48     2.586    2.223   58.1   22.8   116   13.7 
2026-07-03 00:00 UT   10 27 58.0   +01 45 50     2.594    2.222   57.6   22.7   116   13.7 
2026-07-04 00:00 UT   10 29 41.4   +01 38 47     2.602    2.220   57.1   22.6   116   13.7 
2026-07-05 00:00 UT   10 31 25.3   +01 31 39     2.610    2.219   56.6   22.5   117   13.7 
2026-07-06 00:00 UT   10 33 09.6   +01 24 25     2.617    2.217   56.1   22.4   117   13.7 
2026-07-07 00:00 UT   10 34 54.2   +01 17 06     2.625    2.216   55.6   22.2   117   13.7 
2026-07-08 00:00 UT   10 36 39.2   +01 09 42     2.633    2.214   55.1   22.1   117   13.7 
2026-07-09 00:00 UT   10 38 24.6   +01 02 12     2.640    2.213   54.6   22.0   117   13.7 
2026-07-10 00:00 UT   10 40 10.4   +00 54 37     2.648    2.211   54.1   21.9   117   13.7 
2026-07-11 00:00 UT   10 41 56.5   +00 46 58     2.656    2.210   53.6   21.7   117   13.7 
2026-07-12 00:00 UT   10 43 43.0   +00 39 13     2.663    2.208   53.1   21.6   117   13.7 
2026-07-13 00:00 UT   10 45 29.8   +00 31 23     2.671    2.207   52.7   21.5   118   13.7 


    Terminology:
            
    delta:  distance between minor planet and earth in AU
    radius: distance between minor planet and sun in AU
    magn:   magnitude (brightness) estimate    
    ra:     right ascension in hours (24h = 360deg)
    dec:    declination in degrees
    elong:  elongation in degrees (angle sun-earth-minor planet)    
    phase:  phase angle in degrees (angle sun-minor planet-earth)        
    AU:     Astronomical Unit (mean distance between earth and sun: 149597870.7 km
    

Orbital elements provided by the MPC (Minor Planet Center).
Calculations by a modified version of AAPlus, a C# implementation of the AA+ project by PJ Naughter from the algorithms presented in the book "Astronomical Algorithms" by Jean Meeus.
NGC2000 dso catalog and star labels from VizieR as provided by the Strasbourg astronomical Data Center.
Tycho2 catalog from the ESO archive.